Location: *
(58.7167°N, 26.1833°E)
Time: 12:02:01
(UTC+00:00)

Meteor 1-12 Rocket - Pass Details

Date: 25 August 2019
Orbit: 854 x 927 km, 81.2° (Epoch: 15 September)

Event Time Altitude Azimuth Distance (km) Brightness Sun altitude
Exits shadow 20:53:07 24° 195° (SSW) 1,773 5.4 -18.6°
Maximum altitude 20:56:49 89° 280° (W) 906 4.3 -18.8°
Drops below altitude 10° 21:02:41 10° 16° (NNE) 2,559 7.5 -19.0°
Sets 21:05:07 0° 17° (NNE) 3,491 8.3 -19.1°
